Wind_Speed
8 8 8 9 10 11 11 11 13 13 13 15 15 15 16 16 16 17 18 20 20 21 22 23 24 26 27 29 30 29 28 29 30 30 31 32 32 32 32 32 31 31 31 32
8 8 8 9 10 11 12 13 14 14 14 15 15 15 16 16 15 16 18 19 21 21 22 23 25 26 27 29 29 29 29 29 31 32 32 32 33 34 34 34 34 33 33 33
9 9 9 10 11 12 12 13 14 15 15 16 16 16 16 15 15 16 17 18 20 21 22 24 24 26 27 29 30 30 31 31 32 32 33 33 33 35 35 34 34 34 33 33
9 10 10 11 11 12 13 14 14 14 16 16 16 16 15 16 16 17 18 19 20 21 22 24 25 26 27 28 30 31 31 31 32 33 33 33 33 35 35 35 34 34 34 34
11 11 11 11 12 13 13 14 15 15 16 16 16 17 15 16 16 17 18 19 20 21 22 23 24 25 27 28 29 31 31 31 31 32 33 32 33 34 35 36 34 34 35 35
13 13 13 12 13 14 14 15 16 16 17 17 16 18 18 17 17 17 19 21 21 22 22 23 24 26 27 29 30 31 32 32 32 31 32 31 32 33 34 35 36 35 35 36
15 15 15 15 15 16 16 16 17 17 18 18 18 20 20 19 19 19 19 21 21 23 24 25 26 27 28 29 30 31 32 33 33 32 31 32 32 33 34 35 36 36 37 37
18 17 17 16 16 18 18 18 18 20 20 20 20 22 21 21 21 21 22 22 23 24 25 27 28 29 29 30 31 33 33 33 34 34 33 33 34 34 35 36 37 38 39 39
19 19 19 19 19 19 20 20 21 22 23 23 23 23 23 23 23 24 24 25 26 26 27 29 30 30 30 31 32 33 34 34 35 35 35 35 35 35 35 36 36 38 39 40
21 22 21 21 22 22 22 22 22 23 25 25 25 25 25 25 25 26 27 28 29 29 30 31 32 32 32 32 33 34 34 35 35 36 37 36 36 36 36 37 37 37 38 40
25 25 25 24 24 25 25 26 26 27 28 28 28 28 27 27 27 28 29 30 31 32 32 33 33 34 34 34 34 35 35 35 36 36 37 37 37 37 38 39 39 40 40 41
29 29 28 28 28 28 28 28 29 29 30 30 31 31 29 28 29 29 30 31 32 33 34 35 35 36 36 36 36 36 37 37 37 37 38 38 39 39 39 40 40 41 42 43
32 32 32 31 30 31 31 31 32 33 33 33 33 33 31 31 31 32 33 33 33 33 34 35 36 37 38 38 38 38 38 38 39 39 40 40 41 41 41 41 42 43 44 45
35 35 35 35 34 33 33 33 34 35 35 35 35 34 33 33 34 34 35 34 34 34 34 35 36 38 39 39 40 40 40 40 41 41 41 42 43 43 44 44 44 45 45 46
38 38 37 37 37 36 36 36 36 37 37 38 37 37 35 35 36 36 36 35 35 35 36 36 37 38 40 41 42 42 42 43 43 43 44 44 44 45 46 46 47 47 47 47
40 40 40 39 39 39 39 38 39 39 39 40 40 39 38 39 39 39 38 38 38 38 37 38 39 39 41 42 42 43 44 44 45 45 46 46 47 47 48 48 48 48 49 49
42 42 42 42 41 43 42 39 40 40 40 41 41 40 40 41 41 41 40 40 41 41 40 41 41 42 42 43 43 44 45 46 46 47 47 48 48 48 49 49 50 50 50 50
44 43 44 44 44 45 42 41 41 41 41 41 42 42 42 42 42 42 42 43 43 42 43 43 43 44 45 45 46 46 46 46 47 47 47 48 48 48 48 49 49 49 50 51
44 44 45 46 46 46 44 43 42 43 43 43 43 43 44 43 43 42 43 44 44 44 44 44 45 45 46 46 46 47 47 47 47 47 47 48 48 48 48 48 48 49 49 50
44 45 46 47 48 48 46 45 44 45 45 43 44 44 45 45 44 44 44 45 45 46 46 46 46 47 47 47 48 48 47 47 47 47 47 47 47 47 48 48 48 48 49 49
45 45 46 47 48 48 46 45 45 45 46 45 44 45 45 45 46 46 46 47 47 48 48 48 47 47 47 48 48 48 48 48 48 48 48 48 47 48 48 48 48 48 48 48
45 46 46 46 47 46 45 46 46 47 47 46 47 46 46 46 46 46 46 47 48 48 48 49 49 49 48 48 47 47 47 47 48 48 48 48 48 48 49 48 48 48 48 48
46 46 46 46 46 46 46 46 47 47 47 47 48 48 48 48 48 47 47 47 48 49 49 50 50 50 50 49 49 48 48 48 49 49 49 50 50 50 50 50 49 48 48 48
47 47 47 47 46 46 46 47 47 47 48 48 49 49 49 49 48 48 49 49 49 50 50 50 50 50 49 49 50 50 50 50 50 50 50 50 50 50 50 50 50 49 48 48
47 47 47 47 46 47 47 48 48 49 49 49 49 49 48 48 48 49 49 49 50 50 50 51 50 50 50 50 51 51 51 51 51 51 50 50 49 49 49 49 49 49 48 48
45 46 46 47 47 48 48 48 48 49 49 48 48 48 48 49 49 49 50 50 50 50 49 50 50 50 50 49 50 50 49 49 50 50 49 49 48 48 48 48 47 47 47 47
Wind_Direction
294 289 288 284 279 278 279 281 286 287 282 278 274 269 266 265 257 248 245 243 245 243 240 239 239 241 242 241 243 247 250 250 247 247 249 249 248 249 251 254 257 257 257 258
294 292 290 286 279 272 278 284 286 286 284 281 277 273 269 265 258 250 248 249 248 248 246 244 244 244 246 247 249 250 252 252 250 248 250 250 250 252 254 254 257 256 257 259
296 293 292 286 280 276 280 288 287 284 283 282 280 274 269 266 262 254 252 252 249 251 251 248 247 247 249 249 252 253 252 252 253 252 253 256 256 256 255 255 258 257 259 260
293 291 291 286 281 282 284 290 290 287 285 283 281 275 270 269 263 259 258 254 251 251 252 249 251 253 253 254 254 255 256 256 255 255 258 259 260 258 256 259 259 260 260 261
293 289 287 282 281 282 288 289 290 290 286 285 283 282 277 273 268 261 260 258 256 253 253 251 253 256 256 257 257 257 259 260 261 262 260 260 260 258 258 259 260 260 261 262
290 288 285 282 281 284 286 288 287 288 286 285 287 283 280 277 272 266 262 262 259 257 256 255 256 257 258 260 261 260 263 263 264 266 263 263 262 261 260 260 260 261 262 262
287 286 285 283 284 287 285 287 288 288 288 288 287 284 282 281 276 271 268 266 263 260 260 259 260 260 261 262 263 263 263 264 263 265 265 265 265 263 262 261 261 262 263 264
287 286 283 282 283 284 285 284 287 289 289 288 286 286 286 282 278 273 270 268 266 263 262 263 263 263 264 264 264 265 264 265 264 264 266 267 267 266 265 263 263 263 264 265
285 285 282 283 284 284 283 281 285 286 287 287 286 286 286 282 278 275 273 271 267 266 266 265 266 266 267 267 267 267 266 266 265 265 266 267 267 268 267 266 265 265 266 266
282 283 282 281 280 280 281 281 282 284 285 285 285 285 284 283 280 277 274 271 268 267 267 268 268 269 269 270 269 268 267 267 266 266 267 267 267 268 269 268 268 268 269 269
281 282 283 282 281 281 280 279 280 281 281 283 285 284 284 282 280 278 275 273 272 269 268 269 270 270 271 271 270 269 268 267 266 266 266 266 266 267 268 269 269 270 270 272
281 281 282 282 282 281 280 279 278 279 280 281 283 284 283 281 278 277 276 274 272 271 270 270 270 270 271 271 269 269 268 267 266 266 266 266 266 267 268 269 269 270 271 272
279 281 282 282 281 280 279 279 278 277 278 279 281 283 282 280 277 276 275 275 275 274 272 272 271 270 270 270 270 270 269 268 267 268 268 267 268 269 269 270 271 272 272 272
278 279 280 281 282 281 280 279 279 278 278 279 279 281 281 279 276 276 276 277 277 276 275 273 272 271 271 271 271 270 270 270 270 270 271 270 270 271 272 272 273 274 274 275
277 278 278 278 278 278 279 279 278 278 279 279 279 279 280 278 276 275 275 276 276 276 275 274 273 273 273 273 273 272 272 272 272 272 273 272 272 272 273 275 275 275 275 275
276 277 277 277 277 277 277 278 278 278 278 278 278 277 277 277 275 275 275 275 275 275 274 274 273 273 274 274 274 273 273 273 273 274 274 274 274 274 275 275 276 276 275 275
275 276 276 276 276 276 277 279 278 277 277 277 277 277 275 275 275 275 275 274 275 275 275 275 275 275 276 275 275 274 274 274 274 275 275 275 275 275 275 276 276 276 275 274
275 276 276 276 275 275 279 277 276 276 276 276 276 275 275 275 275 275 274 274 275 275 275 275 276 276 276 276 275 275 275 275 275 276 276 276 276 277 277 276 277 276 276 275
274 274 275 276 275 276 276 276 276 276 275 275 276 276 275 276 275 274 274 274 275 274 275 275 276 277 276 276 276 275 275 276 276 276 276 276 277 277 277 277 277 277 276 276
272 273 274 274 275 276 278 278 277 277 276 275 276 277 277 276 276 276 275 274 274 275 275 275 276 276 276 276 276 276 275 276 276 277 277 277 277 278 278 278 278 278 278 276
272 273 273 275 275 276 278 278 278 278 278 277 276 276 276 276 277 277 275 274 274 274 275 276 276 276 276 276 276 277 276 276 277 277 277 277 278 279 279 280 279 279 278 277
273 274 274 275 275 277 277 277 277 278 277 277 277 276 276 276 276 276 276 276 275 276 276 276 276 276 276 276 276 276 276 276 277 277 277 278 279 279 280 280 279 279 278 278
272 274 274 274 275 276 276 277 276 276 276 276 276 277 276 276 276 276 276 277 278 277 277 277 278 278 277 276 275 275 276 276 277 277 278 278 279 279 279 279 279 278 278 278
270 271 271 272 273 274 274 275 276 276 276 276 277 277 277 277 277 277 277 277 278 278 277 277 278 278 277 277 277 277 276 277 278 278 278 278 279 279 279 279 278 278 278 277
270 271 271 272 273 273 273 274 274 275 276 277 277 277 277 277 277 277 277 278 279 279 279 278 277 277 277 277 277 277 277 278 278 278 278 278 278 278 278 278 277 277 276 276
269 269 270 271 272 273 273 273 274 274 275 276 277 278 278 278 278 278 279 279 280 280 280 278 277 278 277 277 277 277 276 277 278 278 278 278 278 278 278 278 277 276 275 275
Height
5721 5722 5722 5721 5721 5721 5721 5721 5720 5720 5720 5720 5720 5720 5721 5721 5722 5723 5724 5726 5728 5731 5733 5736 5739 5742 5744 5746 5748 5750 5752 5753 5756 5758 5760 5762 5764 5766 5768 5769 5770 5771 5773 5774
5721 5721 5721 5719 5719 5719 5719 5719 5719 5719 5718 5718 5718 5718 5718 5718 5719 5721 5722 5723 5725 5727 5730 5733 5735 5737 5740 5742 5744 5745 5747 5748 5751 5753 5754 5756 5757 5759 5761 5762 5763 5765 5766 5767
5719 5720 5719 5718 5718 5718 5717 5717 5717 5717 5716 5716 5716 5716 5716 5717 5717 5718 5719 5720 5722 5724 5726 5729 5731 5733 5736 5737 5738 5740 5741 5743 5745 5746 5748 5749 5751 5752 5754 5755 5757 5758 5759 5759
5718 5717 5717 5717 5716 5715 5715 5715 5715 5714 5714 5714 5714 5713 5715 5714 5715 5715 5716 5717 5719 5720 5722 5724 5727 5729 5731 5732 5734 5735 5736 5738 5739 5740 5741 5742 5744 5745 5746 5748 5749 5750 5751 5752
5716 5715 5715 5715 5714 5713 5713 5713 5712 5712 5711 5711 5711 5711 5713 5712 5712 5713 5714 5714 5715 5717 5718 5720 5722 5724 5725 5727 5728 5729 5731 5732 5733 5733 5734 5736 5736 5737 5739 5740 5742 5742 5743 5744
5714 5713 5713 5712 5712 5711 5711 5711 5710 5709 5708 5708 5708 5707 5709 5708 5709 5710 5710 5711 5711 5713 5714 5715 5717 5718 5720 5721 5722 5724 5725 5726 5726 5726 5727 5728 5729 5730 5731 5732 5733 5734 5734 5735
5712 5711 5710 5709 5709 5708 5708 5707 5707 5705 5704 5705 5705 5704 5705 5705 5705 5706 5706 5707 5707 5708 5709 5710 5711 5713 5714 5715 5716 5717 5717 5718 5719 5719 5719 5720 5721 5722 5723 5724 5724 5725 5726 5726
5708 5708 5707 5706 5706 5705 5704 5704 5703 5702 5701 5701 5701 5700 5701 5701 5700 5700 5701 5702 5702 5703 5704 5705 5706 5706 5707 5708 5709 5709 5710 5710 5711 5711 5712 5712 5713 5714 5714 5715 5716 5716 5717 5717
5703 5704 5703 5702 5701 5701 5700 5699 5699 5698 5697 5696 5696 5697 5697 5695 5695 5695 5696 5696 5697 5698 5698 5699 5699 5699 5700 5700 5701 5701 5702 5702 5702 5703 5704 5704 5704 5705 5705 5706 5706 5706 5707 5707
5698 5699 5699 5698 5697 5697 5696 5695 5694 5692 5691 5690 5691 5691 5692 5690 5690 5690 5690 5690 5690 5691 5691 5691 5692 5692 5692 5692 5692 5692 5693 5693 5694 5694 5695 5695 5695 5695 5696 5696 5696 5697 5697 5697
5693 5693 5693 5692 5691 5691 5690 5690 5688 5686 5686 5685 5684 5688 5686 5685 5684 5683 5683 5683 5683 5683 5684 5684 5684 5684 5684 5683 5683 5683 5683 5684 5684 5684 5685 5685 5685 5686 5686 5686 5686 5686 5686 5686
5686 5685 5685 5686 5685 5683 5683 5682 5681 5681 5679 5678 5677 5682 5679 5678 5676 5675 5675 5674 5674 5675 5675 5675 5675 5674 5674 5674 5674 5674 5674 5674 5674 5674 5675 5675 5675 5675 5676 5676 5675 5675 5675 5675
5678 5677 5677 5677 5679 5677 5675 5674 5673 5672 5671 5670 5670 5673 5671 5670 5668 5667 5667 5666 5666 5666 5666 5666 5665 5665 5665 5664 5664 5664 5664 5664 5664 5664 5664 5664 5665 5665 5665 5664 5664 5664 5664 5664
5668 5668 5669 5669 5667 5666 5666 5666 5665 5663 5662 5662 5662 5662 5663 5661 5659 5659 5658 5657 5657 5656 5656 5655 5655 5655 5655 5654 5654 5654 5653 5653 5653 5653 5653 5653 5653 5653 5653 5652 5652 5652 5652 5651
5658 5658 5658 5658 5657 5656 5656 5657 5655 5653 5653 5652 5653 5652 5653 5651 5649 5649 5648 5648 5647 5647 5646 5645 5645 5645 5644 5644 5643 5643 5642 5642 5641 5641 5641 5641 5641 5641 5640 5640 5639 5639 5638 5638
5647 5647 5647 5648 5647 5645 5645 5647 5645 5644 5643 5641 5641 5641 5641 5639 5639 5638 5638 5638 5637 5636 5636 5635 5634 5634 5633 5632 5632 5631 5631 5630 5629 5629 5629 5628 5628 5628 5627 5627 5626 5626 5625 5624
5636 5635 5635 5635 5635 5633 5635 5637 5635 5633 5632 5631 5629 5631 5629 5628 5627 5627 5627 5626 5626 5625 5625 5624 5623 5622 5621 5621 5620 5619 5618 5618 5617 5616 5615 5615 5615 5614 5614 5613 5612 5611 5610 5610
5625 5623 5621 5621 5622 5620 5627 5624 5622 5621 5621 5619 5617 5617 5616 5616 5616 5615 5615 5614 5614 5613 5612 5612 5611 5610 5609 5608 5607 5606 5606 5605 5604 5603 5602 5601 5601 5600 5599 5598 5597 5596 5595 5595
5613 5611 5609 5608 5607 5607 5612 5611 5609 5608 5608 5607 5605 5604 5603 5603 5603 5603 5602 5601 5600 5600 5599 5598 5598 5597 5596 5595 5593 5593 5592 5591 5590 5589 5588 5587 5586 5585 5585 5584 5582 5581 5580 5580
5600 5599 5598 5596 5594 5594 5599 5598 5595 5595 5594 5596 5593 5592 5591 5590 5590 5591 5589 5588 5587 5586 5586 5585 5584 5583 5582 5581 5579 5579 5578 5577 5576 5575 5574 5573 5572 5571 5570 5569 5568 5567 5566 5565
5587 5586 5585 5583 5580 5581 5584 5583 5582 5582 5583 5581 5580 5579 5578 5577 5577 5577 5576 5574 5573 5573 5572 5571 5570 5569 5568 5566 5565 5565 5564 5563 5562 5561 5560 5559 5558 5557 5556 5554 5553 5552 5551 5550
5573 5572 5572 5570 5569 5572 5571 5570 5570 5568 5567 5566 5565 5565 5564 5564 5563 5562 5561 5560 5559 5558 5558 5556 5555 5554 5553 5552 5551 5550 5549 5548 5548 5547 5546 5545 5543 5542 5541 5540 5538 5537 5536 5535
5560 5561 5559 5559 5560 5559 5557 5556 5554 5553 5553 5552 5552 5551 5550 5550 5549 5548 5547 5546 5545 5544 5543 5542 5540 5539 5538 5537 5536 5535 5535 5534 5533 5532 5531 5530 5529 5527 5526 5525 5523 5522 5521 5520
5547 5546 5545 5545 5546 5545 5543 5542 5540 5539 5539 5538 5538 5537 5536 5535 5534 5534 5533 5532 5530 5529 5528 5526 5525 5524 5523 5522 5521 5520 5519 5518 5517 5517 5516 5515 5514 5512 5511 5509 5508 5507 5506 5505
5533 5532 5531 5531 5532 5530 5530 5528 5527 5526 5525 5524 5523 5522 5521 5520 5520 5519 5518 5517 5515 5514 5513 5511 5510 5509 5508 5507 5506 5505 5504 5503 5502 5501 5500 5499 5498 5497 5495 5494 5493 5492 5491 5489
5520 5518 5517 5517 5517 5515 5516 5514 5513 5512 5511 5510 5509 5509 5507 5505 5505 5504 5503 5501 5500 5499 5497 5496 5495 5494 5493 5492 5491 5490 5489 5487 5486 5486 5485 5483 5482 5481 5480 5479 5478 5477 5476 5475